TimePST,TemperatureF,Dew PointF,Humidity,Sea Level PressureIn,VisibilityMPH,Wind Direction,Wind SpeedMPH,Gust SpeedMPH,PrecipitationIn,Events,Conditions,WindDirDegrees,DateUTC
12:15 AM,39.2,39.2,100,30.21,3.0,Calm,Calm,-,N/A,,Clear,0,2014-01-11 08:15:00
12:35 AM,39.2,39.2,100,30.21,6.0,Calm,Calm,-,N/A,,Partly Cloudy,0,2014-01-11 08:35:00
12:55 AM,39.2,39.2,100,30.21,8.0,Calm,Calm,-,N/A,,Clear,0,2014-01-11 08:55:00
1:15 AM,39.2,39.2,100,30.21,10.0,Calm,Calm,-,N/A,,Scattered Clouds,0,2014-01-11 09:15:00
1:35 AM,41.0,41.0,100,30.20,8.0,Calm,Calm,-,N/A,,Overcast,0,2014-01-11 09:35:00
1:55 AM,41.0,41.0,100,30.20,10.0,Calm,Calm,-,N/A,,Overcast,0,2014-01-11 09:55:00
2:15 AM,41.0,41.0,100,30.21,3.0,Calm,Calm,-,N/A,,Scattered Clouds,0,2014-01-11 10:15:00
2:35 AM,39.2,39.2,100,30.21,3.0,Calm,Calm,-,N/A,,Clear,0,2014-01-11 10:35:00
2:55 AM,41.0,41.0,100,30.21,10.0,Calm,Calm,-,N/A,,Clear,0,2014-01-11 10:55:00
3:15 AM,41.0,41.0,100,30.21,0.8,Calm,Calm,-,N/A,,Mostly Cloudy,0,2014-01-11 11:15:00
3:35 AM,41.0,41.0,100,30.20,0.5,Calm,Calm,-,N/A,Fog,Fog,0,2014-01-11 11:35:00
3:55 AM,39.2,39.2,100,30.20,3.0,Calm,Calm,-,N/A,,Clear,0,2014-01-11 11:55:00
4:15 AM,39.2,39.2,100,30.21,0.2,Calm,Calm,-,N/A,Fog,Fog,0,2014-01-11 12:15:00
4:35 AM,39.2,39.2,100,30.22,5.0,North,9.2,-,N/A,,Mostly Cloudy,10,2014-01-11 12:35:00
4:55 AM,41.0,41.0,100,30.22,10.0,East,3.5,-,N/A,,Overcast,100,2014-01-11 12:55:00
5:15 AM,42.8,42.8,100,30.22,10.0,North,4.6,-,N/A,,Overcast,360,2014-01-11 13:15:00
5:35 AM,41.0,41.0,100,30.22,10.0,Calm,Calm,-,N/A,,Overcast,0,2014-01-11 13:35:00
5:55 AM,42.8,42.8,100,30.22,10.0,Calm,Calm,-,N/A,,Overcast,0,2014-01-11 13:55:00
6:15 AM,44.6,44.6,100,30.23,10.0,Calm,Calm,-,N/A,,Overcast,0,2014-01-11 14:15:00
6:35 AM,44.6,44.6,100,30.22,10.0,Calm,Calm,-,N/A,,Overcast,0,2014-01-11 14:35:00
6:55 AM,44.6,44.6,100,30.22,10.0,Calm,Calm,-,N/A,,Unknown,0,2014-01-11 14:55:00
7:15 AM,44.6,44.6,100,30.22,10.0,Calm,Calm,-,N/A,,Unknown,0,2014-01-11 15:15:00
7:35 AM,44.6,44.6,100,30.23,10.0,Calm,Calm,-,N/A,,Unknown,0,2014-01-11 15:35:00
7:55 AM,44.6,44.6,100,30.22,10.0,Calm,Calm,-,N/A,,Unknown,0,2014-01-11 15:55:00
8:15 AM,44.6,44.6,100,30.22,10.0,Calm,Calm,-,N/A,,Unknown,0,2014-01-11 16:15:00
8:35 AM,46.4,46.4,100,30.24,10.0,Calm,Calm,-,N/A,,Unknown,0,2014-01-11 16:35:00
8:55 AM,46.4,46.4,100,30.23,10.0,Calm,Calm,-,N/A,,Unknown,0,2014-01-11 16:55:00
9:15 AM,46.4,46.4,100,30.21,10.0,Calm,Calm,-,N/A,,Unknown,0,2014-01-11 17:15:00
9:35 AM,48.2,48.2,100,30.21,10.0,SE,5.8,-,N/A,,Unknown,130,2014-01-11 17:35:00
9:55 AM,48.2,48.2,100,30.26,10.0,NNW,5.8,-,N/A,,Unknown,330,2014-01-11 17:55:00
10:15 AM,50.0,50.0,100,30.26,10.0,North,3.5,-,N/A,,Unknown,360,2014-01-11 18:15:00
10:35 AM,50.0,50.0,100,30.25,10.0,NNE,3.5,-,N/A,,Unknown,20,2014-01-11 18:35:00
10:55 AM,51.8,50.0,94,30.25,10.0,SE,3.5,-,N/A,,Unknown,130,2014-01-11 18:55:00
11:15 AM,51.8,51.8,100,30.24,10.0,Calm,Calm,-,N/A,,Unknown,0,2014-01-11 19:15:00
11:35 AM,53.6,51.8,94,30.23,10.0,ESE,4.6,-,N/A,,Unknown,120,2014-01-11 19:35:00
11:55 AM,53.6,51.8,94,30.22,7.0,ESE,4.6,-,N/A,,Unknown,120,2014-01-11 19:55:00
12:15 PM,53.6,53.6,100,30.21,2.0,Calm,Calm,-,N/A,,Mist,0,2014-01-11 20:15:00
12:35 PM,53.6,53.6,100,30.19,2.0,Calm,Calm,-,N/A,,Mist,0,2014-01-11 20:35:00
12:55 PM,53.6,53.6,100,30.18,5.0,SW,3.5,-,N/A,,Mist,220,2014-01-11 20:55:00
1:15 PM,55.4,55.4,100,30.17,7.0,SSW,8.1,-,N/A,,Unknown,210,2014-01-11 21:15:00
1:35 PM,55.4,55.4,100,30.16,4.0,WSW,12.7,-,N/A,,Mist,250,2014-01-11 21:35:00
1:55 PM,55.4,55.4,100,30.15,3.0,WSW,15.0,-,N/A,,Mist,250,2014-01-11 21:55:00
2:15 PM,55.4,55.4,100,30.16,2.5,WSW,16.1,-,N/A,,Mist,250,2014-01-11 22:15:00
2:35 PM,55.4,55.4,100,30.16,4.0,WSW,12.7,19.6,N/A,,Mist,250,2014-01-11 22:35:00
2:55 PM,55.4,53.6,94,30.17,10.0,WSW,12.7,17.3,N/A,,Unknown,250,2014-01-11 22:55:00
3:15 PM,57.2,50.0,77,30.17,10.0,West,8.1,-,N/A,,Unknown,280,2014-01-11 23:15:00
3:35 PM,57.2,50.0,77,30.17,10.0,West,10.4,-,N/A,,Unknown,280,2014-01-11 23:35:00
3:55 PM,57.2,48.2,72,30.18,10.0,WNW,10.4,-,N/A,,Clear,290,2014-01-11 23:55:00
4:15 PM,55.4,48.2,77,30.19,10.0,West,8.1,-,N/A,,Clear,280,2014-01-12 00:15:00
4:35 PM,55.4,48.2,77,30.19,10.0,West,8.1,-,N/A,,Clear,280,2014-01-12 00:35:00
4:55 PM,53.6,48.2,82,30.20,10.0,WNW,5.8,-,N/A,,Clear,290,2014-01-12 00:55:00
5:15 PM,53.6,46.4,77,30.20,10.0,West,9.2,-,N/A,,Clear,270,2014-01-12 01:15:00
5:35 PM,53.6,46.4,77,30.20,10.0,West,9.2,-,N/A,,Clear,260,2014-01-12 01:35:00
5:55 PM,53.6,46.4,77,30.21,10.0,West,13.8,19.6,N/A,,Clear,270,2014-01-12 01:55:00
6:15 PM,53.6,48.2,82,30.21,10.0,West,9.2,16.1,N/A,,Clear,270,2014-01-12 02:15:00
6:35 PM,53.6,48.2,82,30.22,10.0,West,6.9,-,N/A,,Clear,270,2014-01-12 02:35:00
6:55 PM,53.6,48.2,82,30.22,10.0,West,10.4,-,N/A,,Clear,270,2014-01-12 02:55:00
7:15 PM,53.6,48.2,82,30.24,10.0,West,6.9,-,N/A,,Partly Cloudy,280,2014-01-12 03:15:00
7:35 PM,53.6,48.2,82,30.24,10.0,WNW,8.1,-,N/A,,Scattered Clouds,300,2014-01-12 03:35:00
7:55 PM,53.6,48.2,82,30.23,10.0,West,9.2,16.1,N/A,,Scattered Clouds,280,2014-01-12 03:55:00
8:15 PM,53.6,48.2,82,30.24,10.0,West,13.8,-,N/A,,Partly Cloudy,270,2014-01-12 04:15:00
8:35 PM,53.6,48.2,82,30.25,10.0,West,13.8,20.7,N/A,,Clear,280,2014-01-12 04:35:00
8:55 PM,48.2,46.4,93,30.26,10.0,East,4.6,-,N/A,,Clear,90,2014-01-12 04:55:00
9:15 PM,46.4,46.4,100,30.27,10.0,Calm,Calm,-,N/A,,Clear,0,2014-01-12 05:15:00
9:35 PM,46.4,46.4,100,30.28,9.0,Calm,Calm,-,N/A,,Partly Cloudy,0,2014-01-12 05:35:00
9:55 PM,44.6,44.6,100,30.29,8.0,East,5.8,-,N/A,,Clear,100,2014-01-12 05:55:00
10:15 PM,46.4,46.4,100,30.28,8.0,Calm,Calm,-,N/A,,Clear,0,2014-01-12 06:15:00
10:35 PM,46.4,46.4,100,30.29,8.0,Calm,Calm,-,N/A,,Clear,0,2014-01-12 06:35:00
10:55 PM,44.6,44.6,100,30.29,5.0,WSW,3.5,-,N/A,,Clear,240,2014-01-12 06:55:00
11:15 PM,44.6,44.6,100,30.28,6.0,South,5.8,-,N/A,,Clear,190,2014-01-12 07:15:00
11:35 PM,44.6,44.6,100,30.28,5.0,NW,3.5,-,N/A,,Clear,310,2014-01-12 07:35:00
11:55 PM,41.0,41.0,100,30.28,0.2,ENE,5.8,-,N/A,Fog,Fog,60,2014-01-12 07:55:00